sat.trackr.live / text

‹ back to catalog

STARLINK-6187

NORAD 56546 · 2023-065AV

PAYLOAD ACTIVE UNKNOWN

§ Identity

Operator
Country
US
Launch date
2023-05-14
Launch site
AFETR
Launch vehicle
Mass (kg)
RCS (m²)

Purposes: comms

External: N2YO · Heavens-Above · Gunter

§ Orbital elements

Epoch: 2026-05-24T10:23:00.117600Z

Period
94.26 min
Inclination
43.0039°
Eccentricity
0.0002361
Mean motion
15.27611539 rev/d
Perigee alt
481.3 km
Apogee alt
484.6 km
Semi-major
6,861.1 km
B*
4.8148e-4
RAAN
156.0360°
Arg perigee
286.4832°
Mean anomaly
73.5760°
Rev number
16,805

§ Raw data

STARLINK-61871 56546U 23065AV  26144.43264025  .00013023  00000+0  48148-3 0  99912 56546  43.0039 156.0360 0002361 286.4832  73.5760 15.27611539168051

JSON: /api/v1/satellites/56546 · /tle

For live sub-satellite position, see the globe view (requires WebGL).

§ Visibility from observer

Set your observer location to see the next 7 days of passes ≥ 10°. The values pass through the URL so the page stays shareable.

No JS? Fill the form by hand. The geolocation button needs JavaScript.